Location: Napier
(39.4830°S, 176.9170°E)
Time: 13:37:47
(UTC+13:00)

Cosmos 2263 Rocket - Pass Details

Date: 24 January 2019
Orbit: 824 x 848 km, 71.0° (Epoch: 13 October)

Event Time Altitude Azimuth Distance (km) Brightness Sun altitude
Rises 21:43:50 0° 201° (SSW) 3,411 6.4 -12.0°
Reaches altitude 10° 21:46:19 10° 197° (SSW) 2,474 5.5 -12.3°
Maximum altitude 21:51:58 66° 115° (ESE) 923 2.3 -13.2°
Enters shadow 21:56:07 19° 36° (NE) 1,919 3.5 -13.8°
